WJA727 CYLW-CYMM

Flight info

Callsign WJA727
Flight time 1h 21m
Altitude 35000
Route LW B18 AMBRO DCT ELTIP DCT LEXON LEXON5
Aircraft B738/M-SDE2E3FGHIRWXY/LB1

Departure

Time 2026-04-29 01:31
Airport Kelowna International Airport (CYLW)

Arrival

Time 2026-04-29 02:52
Airport Fort McMurray International Airport (CYMM)
Time Latitude Longitude Altitude Speed Heading
2026-04-29 01:13 49.94975 -119.38005 1369 ft 0 kts 326°
2026-04-29 01:24 49.94967 -119.37997 1370 ft 3 kts 319°
2026-04-29 01:24 49.94956 -119.37977 1370 ft 3 kts 272°
2026-04-29 01:24 49.94958 -119.37960 1369 ft 2 kts 202°
2026-04-29 01:24 49.94968 -119.37955 1370 ft 2 kts 191°
2026-04-29 01:25 49.94987 -119.37953 1371 ft 3 kts 171°
2026-04-29 01:25 49.95001 -119.37956 1370 ft 1 kts 175°
2026-04-29 01:25 49.95002 -119.37957 1370 ft 1 kts 175°
2026-04-29 01:28 49.94990 -119.37945 1371 ft 4 kts 140°
2026-04-29 01:29 49.94975 -119.37908 1370 ft 6 kts 118°
2026-04-29 01:29 49.94956 -119.37845 1370 ft 5 kts 141°
2026-04-29 01:29 49.94890 -119.37823 1369 ft 12 kts 170°
2026-04-29 01:29 49.94828 -119.37804 1368 ft 8 kts 160°
2026-04-29 01:30 49.94777 -119.37738 1366 ft 12 kts 124°
2026-04-29 01:30 49.94823 -119.37670 1368 ft 8 kts
2026-04-29 01:30 49.94834 -119.37671 1369 ft 1 kts 356°
2026-04-29 01:30 49.95084 -119.37704 1372 ft 73 kts 354°
2026-04-29 01:31 49.95824 -119.37815 1401 ft 137 kts 353°
2026-04-29 01:31 49.96854 -119.37908 1929 ft 151 kts
2026-04-29 01:31 49.97977 -119.37869 2402 ft 182 kts 356°
2026-04-29 01:31 49.99336 -119.38182 2850 ft 203 kts 347°
2026-04-29 01:32 50.00604 -119.38909 3897 ft 188 kts 342°
2026-04-29 01:32 50.01903 -119.39457 4482 ft 203 kts 345°
2026-04-29 01:32 50.03353 -119.40046 4760 ft 223 kts 352°
2026-04-29 01:32 50.04891 -119.39750 5472 ft 226 kts 15°
2026-04-29 01:33 50.06418 -119.39067 6162 ft 232 kts 14°
2026-04-29 01:33 50.07999 -119.38398 6922 ft 236 kts 14°
2026-04-29 01:33 50.09583 -119.37747 7651 ft 240 kts 13°
2026-04-29 01:33 50.11185 -119.37045 8476 ft 243 kts 20°
2026-04-29 01:34 50.12804 -119.35895 8804 ft 267 kts 24°
2026-04-29 01:34 50.14507 -119.34578 9473 ft 277 kts 24°
2026-04-29 01:34 50.16242 -119.33220 10285 ft 280 kts 24°
2026-04-29 01:34 50.18046 -119.31827 10637 ft 301 kts 24°
2026-04-29 01:35 50.20007 -119.30323 10823 ft 326 kts 24°
2026-04-29 01:35 50.22117 -119.28713 11000 ft 349 kts 25°
2026-04-29 01:35 50.24359 -119.27011 11254 ft 367 kts 24°
2026-04-29 01:35 50.26658 -119.25265 11810 ft 375 kts 25°
2026-04-29 01:36 50.29012 -119.23478 12540 ft 378 kts 25°
2026-04-29 01:36 50.31385 -119.21676 13254 ft 381 kts 25°
2026-04-29 01:36 50.33787 -119.19854 13930 ft 386 kts 25°
2026-04-29 01:36 50.36214 -119.18014 14529 ft 390 kts 24°
2026-04-29 01:37 50.38665 -119.16153 15165 ft 393 kts 25°
2026-04-29 01:37 50.41139 -119.14272 15787 ft 396 kts 24°
2026-04-29 01:37 50.43632 -119.12376 16391 ft 400 kts 24°
2026-04-29 01:37 50.46112 -119.10486 16987 ft 404 kts 25°
2026-04-29 01:38 50.48650 -119.08551 17580 ft 407 kts 25°
2026-04-29 01:38 50.51208 -119.06598 18166 ft 411 kts 25°
2026-04-29 01:38 50.53795 -119.04620 18685 ft 415 kts 24°
2026-04-29 01:38 50.56398 -119.02627 19221 ft 417 kts 24°
2026-04-29 01:39 50.59016 -119.00619 19776 ft 419 kts 24°
2026-04-29 01:39 50.61635 -118.98609 20292 ft 421 kts 24°
2026-04-29 01:39 50.64277 -118.96579 20777 ft 424 kts 24°
2026-04-29 01:39 50.66901 -118.94425 21254 ft 428 kts 30°
2026-04-29 01:40 50.69286 -118.91684 21726 ft 433 kts 40°
2026-04-29 01:40 50.71453 -118.88350 22197 ft 436 kts 43°
2026-04-29 01:40 50.73583 -118.84928 22651 ft 439 kts 43°
2026-04-29 01:40 50.75721 -118.81468 23084 ft 442 kts 43°
2026-04-29 01:41 50.77875 -118.77987 23513 ft 444 kts 43°
2026-04-29 01:41 50.80047 -118.74491 23908 ft 446 kts 43°
2026-04-29 01:41 50.82225 -118.70996 24265 ft 448 kts 43°
2026-04-29 01:41 50.84427 -118.67471 24626 ft 450 kts 43°
2026-04-29 01:42 50.86636 -118.63937 24967 ft 452 kts 43°
2026-04-29 01:42 50.88854 -118.60389 25098 ft 455 kts 43°
2026-04-29 01:42 50.91054 -118.56867 25091 ft 455 kts 43°
2026-04-29 01:42 50.93273 -118.53309 25094 ft 454 kts 43°
2026-04-29 01:43 50.95487 -118.49753 25105 ft 454 kts 43°
2026-04-29 01:43 50.97709 -118.46179 25114 ft 454 kts 43°
2026-04-29 01:43 50.99926 -118.42609 25090 ft 455 kts 43°
2026-04-29 01:43 51.02146 -118.39029 25096 ft 455 kts 43°
2026-04-29 01:44 51.04367 -118.35442 25090 ft 455 kts 43°
2026-04-29 01:44 51.06553 -118.31907 25095 ft 454 kts 43°
2026-04-29 01:44 51.08764 -118.28324 25084 ft 454 kts 43°
2026-04-29 01:44 51.10974 -118.24736 25085 ft 454 kts 43°
2026-04-29 01:45 51.13176 -118.21157 25095 ft 454 kts 43°
2026-04-29 01:45 51.15388 -118.17559 25159 ft 455 kts 43°
2026-04-29 01:45 51.17583 -118.13978 25873 ft 446 kts 43°
2026-04-29 01:45 51.19707 -118.10504 26965 ft 429 kts 43°
2026-04-29 01:46 51.21749 -118.07160 28117 ft 413 kts 43°
2026-04-29 01:46 51.23719 -118.03929 29135 ft 400 kts 42°
2026-04-29 01:46 51.25612 -118.00828 29973 ft 392 kts 42°
2026-04-29 01:46 51.27503 -117.97729 30570 ft 388 kts 42°
2026-04-29 01:47 51.29390 -117.94637 30934 ft 389 kts 42°
2026-04-29 01:47 51.31283 -117.91530 31198 ft 393 kts 42°
2026-04-29 01:47 51.35183 -117.85122 31330 ft 410 kts 42°
2026-04-29 01:48 51.39227 -117.78449 31485 ft 425 kts 42°
2026-04-29 01:48 51.43376 -117.71575 31625 ft 439 kts 42°
2026-04-29 01:49 51.47680 -117.64437 31802 ft 450 kts 42°
2026-04-29 01:49 51.49860 -117.60802 32011 ft 453 kts 42°
2026-04-29 01:49 51.52034 -117.57170 32356 ft 450 kts 43°
2026-04-29 01:50 51.54202 -117.53541 32610 ft 450 kts 42°
2026-04-29 01:50 51.56370 -117.49911 32873 ft 451 kts 42°
2026-04-29 01:50 51.58530 -117.46289 33235 ft 449 kts 42°
2026-04-29 01:50 51.60692 -117.42660 33602 ft 447 kts 42°
2026-04-29 01:51 51.62844 -117.39044 33868 ft 447 kts 42°
2026-04-29 01:51 51.64995 -117.35428 34100 ft 448 kts 42°
2026-04-29 01:51 51.67154 -117.31792 34328 ft 449 kts 42°
2026-04-29 01:51 51.69311 -117.28154 34588 ft 449 kts 42°
2026-04-29 01:52 51.71436 -117.24563 34804 ft 449 kts 42°
2026-04-29 01:52 51.73590 -117.20920 35048 ft 449 kts 42°
2026-04-29 01:52 51.75746 -117.17266 35149 ft 451 kts 42°
2026-04-29 01:52 51.77909 -117.13593 35146 ft 451 kts 42°
2026-04-29 01:53 51.82207 -117.06277 35126 ft 447 kts 42°
2026-04-29 01:53 51.86473 -116.99000 35144 ft 444 kts 42°
2026-04-29 01:54 51.90713 -116.91749 35148 ft 443 kts 42°
2026-04-29 01:54 51.94936 -116.84503 35156 ft 440 kts 42°
2026-04-29 01:55 51.99133 -116.77280 35163 ft 440 kts 42°
2026-04-29 01:55 52.03308 -116.70090 35141 ft 441 kts 43°
2026-04-29 01:56 52.07515 -116.62804 35132 ft 443 kts 42°
2026-04-29 01:56 52.11741 -116.55459 35140 ft 446 kts 42°
2026-04-29 01:57 52.15982 -116.48073 35151 ft 448 kts 43°
2026-04-29 01:57 52.20249 -116.40620 35114 ft 450 kts 43°
2026-04-29 01:58 52.24511 -116.33150 35096 ft 450 kts 43°
2026-04-29 01:58 52.28773 -116.25662 35104 ft 450 kts 43°
2026-04-29 01:59 52.33020 -116.18175 35077 ft 449 kts 43°
2026-04-29 01:59 52.37237 -116.10719 35098 ft 449 kts 43°
2026-04-29 02:00 52.41469 -116.03213 35068 ft 449 kts 43°
2026-04-29 02:00 52.45690 -115.95704 35081 ft 447 kts 43°
2026-04-29 02:01 52.49861 -115.88264 35080 ft 447 kts 43°
2026-04-29 02:01 52.54058 -115.80753 35080 ft 446 kts 43°
2026-04-29 02:02 52.58256 -115.73217 35088 ft 447 kts 43°
2026-04-29 02:02 52.62414 -115.65732 35082 ft 446 kts 44°
2026-04-29 02:03 52.66598 -115.58175 35080 ft 446 kts 44°
2026-04-29 02:03 52.70778 -115.50604 35091 ft 446 kts 44°
2026-04-29 02:04 52.74951 -115.43021 35086 ft 446 kts 44°
2026-04-29 02:04 52.79092 -115.35472 35105 ft 446 kts 44°
2026-04-29 02:05 52.83258 -115.27857 35096 ft 447 kts 44°
2026-04-29 02:05 52.87419 -115.20225 35106 ft 447 kts 44°
2026-04-29 02:06 52.91575 -115.12579 35102 ft 447 kts 44°
2026-04-29 02:06 52.95732 -115.04909 35131 ft 447 kts 44°
2026-04-29 02:07 52.99853 -114.97279 35120 ft 447 kts 44°
2026-04-29 02:07 53.04000 -114.89579 35117 ft 447 kts 44°
2026-04-29 02:08 53.08141 -114.81866 35122 ft 447 kts 44°
2026-04-29 02:08 53.12275 -114.74141 35124 ft 447 kts 44°
2026-04-29 02:09 53.16407 -114.66396 35135 ft 447 kts 45°
2026-04-29 02:09 53.20528 -114.58648 35133 ft 447 kts 45°
2026-04-29 02:10 53.24615 -114.50939 35128 ft 446 kts 45°
2026-04-29 02:10 53.28724 -114.43164 35130 ft 446 kts 45°
2026-04-29 02:11 53.32827 -114.35377 35128 ft 446 kts 45°
2026-04-29 02:11 53.36922 -114.27579 35136 ft 446 kts 45°
2026-04-29 02:12 53.40980 -114.19828 35126 ft 445 kts 45°
2026-04-29 02:12 53.45057 -114.12016 35127 ft 445 kts 45°
2026-04-29 02:13 53.49122 -114.04201 35126 ft 444 kts 45°
2026-04-29 02:13 53.53185 -113.96367 35124 ft 444 kts 45°
2026-04-29 02:14 53.57240 -113.88523 35128 ft 445 kts 45°
2026-04-29 02:14 53.61267 -113.80708 35119 ft 445 kts 45°
2026-04-29 02:15 53.65316 -113.72824 35120 ft 445 kts 45°
2026-04-29 02:15 53.69359 -113.64928 35124 ft 445 kts 45°
2026-04-29 02:16 53.73398 -113.57014 35127 ft 445 kts 46°
2026-04-29 02:16 53.76752 -113.50424 35142 ft 446 kts 46°
2026-04-29 02:17 53.80793 -113.42459 35144 ft 446 kts 46°
2026-04-29 02:17 53.85484 -113.33181 35149 ft 446 kts 46°
2026-04-29 02:18 53.89513 -113.25183 35163 ft 446 kts 46°
2026-04-29 02:18 53.92863 -113.18513 35151 ft 447 kts 46°
2026-04-29 02:19 53.96891 -113.10471 35164 ft 447 kts 46°
2026-04-29 02:19 54.00913 -113.02415 35156 ft 448 kts 46°
2026-04-29 02:20 54.05385 -112.95164 35159 ft 442 kts 32°
2026-04-29 02:20 54.10790 -112.90359 35158 ft 437 kts 20°
2026-04-29 02:21 54.16385 -112.86441 35153 ft 437 kts 20°
2026-04-29 02:21 54.22014 -112.82479 35166 ft 438 kts 20°
2026-04-29 02:22 54.27639 -112.78451 35155 ft 439 kts 20°
2026-04-29 02:22 54.33254 -112.74391 35150 ft 439 kts 21°
2026-04-29 02:23 54.38884 -112.70304 35145 ft 439 kts 21°
2026-04-29 02:23 54.44503 -112.66213 35151 ft 439 kts 21°
2026-04-29 02:24 54.50081 -112.62140 35141 ft 438 kts 21°
2026-04-29 02:25 54.58493 -112.55977 35155 ft 438 kts 21°
2026-04-29 02:25 54.64099 -112.51854 35146 ft 438 kts 21°
2026-04-29 02:26 54.69706 -112.47718 35143 ft 438 kts 21°
2026-04-29 02:26 54.75318 -112.43566 35140 ft 438 kts 21°
2026-04-29 02:27 54.80911 -112.39415 35142 ft 438 kts 21°
2026-04-29 02:27 54.86473 -112.35275 35144 ft 437 kts 21°
2026-04-29 02:28 54.92065 -112.31099 35148 ft 437 kts 21°
2026-04-29 02:28 54.97653 -112.26914 35149 ft 438 kts 21°
2026-04-29 02:29 55.03245 -112.22713 35141 ft 438 kts 21°
2026-04-29 02:29 55.06057 -112.20596 34704 ft 444 kts 21°
2026-04-29 02:29 55.08886 -112.18463 34221 ft 440 kts 21°
2026-04-29 02:29 55.11697 -112.16340 33383 ft 441 kts 21°
2026-04-29 02:30 55.14518 -112.14253 32733 ft 439 kts 20°
2026-04-29 02:30 55.17322 -112.12377 32109 ft 436 kts 18°
2026-04-29 02:30 55.20175 -112.10572 31387 ft 437 kts 18°
2026-04-29 02:30 55.23038 -112.08790 30634 ft 437 kts 18°
2026-04-29 02:31 55.25909 -112.06998 29839 ft 438 kts 18°
2026-04-29 02:31 55.28784 -112.05186 28954 ft 439 kts 18°
2026-04-29 02:31 55.31650 -112.03360 28111 ft 438 kts 18°
2026-04-29 02:31 55.34513 -112.01523 27251 ft 438 kts 18°
2026-04-29 02:32 55.37355 -111.99688 26659 ft 432 kts 18°
2026-04-29 02:32 55.40163 -111.97870 26027 ft 427 kts 19°
2026-04-29 02:32 55.42932 -111.96073 25431 ft 422 kts 19°
2026-04-29 02:32 55.45668 -111.94295 24834 ft 417 kts 19°
2026-04-29 02:33 55.48380 -111.92531 24243 ft 413 kts 19°
2026-04-29 02:33 55.51025 -111.90808 23659 ft 409 kts 19°
2026-04-29 02:33 55.53683 -111.89075 22988 ft 405 kts 19°
2026-04-29 02:33 55.56306 -111.87361 22400 ft 400 kts 19°
2026-04-29 02:34 55.58897 -111.85667 21824 ft 395 kts 18°
2026-04-29 02:34 55.61457 -111.83991 21244 ft 390 kts 18°
2026-04-29 02:34 55.63995 -111.82327 20674 ft 387 kts 18°
2026-04-29 02:34 55.66505 -111.80679 20111 ft 384 kts 18°
2026-04-29 02:35 55.69000 -111.79039 19566 ft 381 kts 18°
2026-04-29 02:35 55.71478 -111.77413 19005 ft 379 kts 18°
2026-04-29 02:35 55.73920 -111.75808 18462 ft 379 kts 18°
2026-04-29 02:35 55.76385 -111.74177 17834 ft 379 kts 18°
2026-04-29 02:36 55.78873 -111.72531 17259 ft 384 kts 19°
2026-04-29 02:36 55.81316 -111.70579 16975 ft 387 kts 27°
2026-04-29 02:36 55.83642 -111.68127 16710 ft 388 kts 29°
2026-04-29 02:36 55.85936 -111.65614 16445 ft 386 kts 29°
2026-04-29 02:37 55.88217 -111.63107 16183 ft 384 kts 29°
2026-04-29 02:37 55.90929 -111.60158 15881 ft 382 kts 28°
2026-04-29 02:37 55.94171 -111.56650 15516 ft 380 kts 28°
2026-04-29 02:37 55.96433 -111.54207 15258 ft 379 kts 28°
2026-04-29 02:38 55.98684 -111.51772 15007 ft 378 kts 28°
2026-04-29 02:38 56.00930 -111.49337 14759 ft 377 kts 28°
2026-04-29 02:38 56.03173 -111.46908 14530 ft 376 kts 28°
2026-04-29 02:38 56.05380 -111.44519 14271 ft 375 kts 28°
2026-04-29 02:39 56.07603 -111.42112 13740 ft 371 kts 28°
2026-04-29 02:39 56.09794 -111.39738 13189 ft 366 kts 28°
2026-04-29 02:39 56.11960 -111.37389 12681 ft 361 kts 28°
2026-04-29 02:39 56.14093 -111.35073 12176 ft 356 kts 29°
2026-04-29 02:40 56.16202 -111.32781 11647 ft 353 kts 29°
2026-04-29 02:40 56.18290 -111.30508 11230 ft 347 kts 29°
2026-04-29 02:40 56.20312 -111.28303 11110 ft 334 kts 29°
2026-04-29 02:40 56.22277 -111.26158 10960 ft 327 kts 29°
2026-04-29 02:41 56.24200 -111.24056 10822 ft 320 kts 29°
2026-04-29 02:41 56.26081 -111.21999 10689 ft 313 kts 29°
2026-04-29 02:41 56.27885 -111.20023 10557 ft 301 kts 29°
2026-04-29 02:41 56.29623 -111.18115 10421 ft 284 kts 29°
2026-04-29 02:42 56.31275 -111.16301 10312 ft 273 kts 29°
2026-04-29 02:42 56.32871 -111.14548 10202 ft 265 kts 29°
2026-04-29 02:42 56.34425 -111.12841 10110 ft 258 kts 29°
2026-04-29 02:42 56.35934 -111.11179 9941 ft 252 kts 28°
2026-04-29 02:43 56.37392 -111.09572 9881 ft 238 kts 28°
2026-04-29 02:43 56.38769 -111.08052 9755 ft 226 kts 28°
2026-04-29 02:43 56.40070 -111.06615 9644 ft 213 kts 28°
2026-04-29 02:43 56.41354 -111.05200 9116 ft 216 kts 28°
2026-04-29 02:44 56.42611 -111.03812 8811 ft 214 kts 28°
2026-04-29 02:44 56.43859 -111.02432 8591 ft 207 kts 27°
2026-04-29 02:44 56.45072 -111.01090 8349 ft 203 kts 27°
2026-04-29 02:44 56.46275 -110.99758 8146 ft 202 kts 27°
2026-04-29 02:45 56.47476 -110.98428 7928 ft 202 kts 27°
2026-04-29 02:45 56.48674 -110.97100 7708 ft 202 kts 27°
2026-04-29 02:45 56.49861 -110.95782 7621 ft 198 kts 27°
2026-04-29 02:45 56.51050 -110.94463 7542 ft 203 kts 27°
2026-04-29 02:46 56.52269 -110.93110 7457 ft 208 kts 27°
2026-04-29 02:46 56.53502 -110.91738 7356 ft 207 kts 27°
2026-04-29 02:46 56.54727 -110.90373 7164 ft 210 kts 27°
2026-04-29 02:46 56.56014 -110.88944 6565 ft 224 kts 27°
2026-04-29 02:47 56.57448 -110.87841 5897 ft 225 kts
2026-04-29 02:47 56.59008 -110.87834 5407 ft 224 kts 358°
2026-04-29 02:47 56.60540 -110.87840 5087 ft 216 kts 358°
2026-04-29 02:47 56.62015 -110.87830 4819 ft 207 kts 359°
2026-04-29 02:48 56.63422 -110.87931 4569 ft 197 kts 345°
2026-04-29 02:48 56.64456 -110.89284 4395 ft 185 kts 297°
2026-04-29 02:48 56.64829 -110.91551 4248 ft 191 kts 287°
2026-04-29 02:48 56.65162 -110.93889 4154 ft 195 kts 280°
2026-04-29 02:49 56.65307 -110.96316 3934 ft 195 kts 275°
2026-04-29 02:49 56.65305 -110.98814 3473 ft 199 kts 267°
2026-04-29 02:49 56.65183 -111.01224 3221 ft 185 kts 270°
2026-04-29 02:49 56.65286 -111.03450 3054 ft 170 kts 276°
2026-04-29 02:50 56.65323 -111.05553 2846 ft 164 kts 270°
2026-04-29 02:50 56.65290 -111.07634 2556 ft 164 kts 271°
2026-04-29 02:50 56.65309 -111.09639 2440 ft 158 kts 272°
2026-04-29 02:50 56.65316 -111.11703 2227 ft 165 kts 270°
2026-04-29 02:51 56.65320 -111.13766 1942 ft 163 kts 270°
2026-04-29 02:51 56.65323 -111.15792 1675 ft 159 kts 269°
2026-04-29 02:51 56.65317 -111.17754 1522 ft 155 kts 269°
2026-04-29 02:51 56.65316 -111.19718 1344 ft 154 kts 270°
2026-04-29 02:52 56.65322 -111.21624 1224 ft 147 kts 264°
2026-04-29 02:52 56.65317 -111.23195 1217 ft 75 kts 269°
2026-04-29 02:52 56.65316 -111.23574 1216 ft 1 kts 256°
2026-04-29 02:52 56.65292 -111.23587 1216 ft 8 kts 175°
2026-04-29 02:53 56.65240 -111.23585 1216 ft 9 kts 176°
2026-04-29 02:53 56.65212 -111.23581 1216 ft 0 kts 176°
2026-04-29 02:53 56.65196 -111.23577 1217 ft 10 kts 168°
2026-04-29 02:53 56.65161 -111.23352 1217 ft 29 kts 84°
2026-04-29 02:54 56.65161 -111.23162 1217 ft 21 kts 94°
2026-04-29 02:54 56.65163 -111.22921 1217 ft 17 kts 91°
2026-04-29 02:54 56.65145 -111.22739 1217 ft 20 kts 126°
2026-04-29 02:54 56.65060 -111.22749 1217 ft 8 kts 208°
2026-04-29 02:55 56.65009 -111.22757 1217 ft 8 kts 173°
2026-04-29 02:55 56.64952 -111.22738 1217 ft 8 kts 176°
2026-04-29 02:55 56.64902 -111.22742 1217 ft 6 kts 194°
2026-04-29 02:55 56.64878 -111.22798 1217 ft 6 kts 263°
2026-04-29 02:56 56.64878 -111.22840 1217 ft 3 kts 268°
2026-04-29 02:56 56.64877 -111.22851 1217 ft 0 kts 258°